WILDTRACKCUBE-SIMBA

Last updated on Wed Oct 29 2025 00:03:53 GMT+0000 (Coordinated Universal Time)

1 47941U 21022K 25301.68851064 .00071756 00000+0 95492-3 0 9998 2 47941 97.4056 210.2748 0009828 132.9396 227.2686 15.57875601255057
UTC large
Height (km)
Speed (km/s)
/
Latitude / Longitude
Inclination (degrees)
Orbital Period (minutes)
Azimuth
Elevation
Range (km)
Doppler Factor

Next 0 passes for location: London (51.5072 / 0.1276)

Sorry there are no passes over London.